Home   Weather   Gainesville   Past weeks
Flag for USA

Past Weather in Gainesville, Florida, USA — Yesterday and Last 2 Weeks

Now
39 °F

Sunny.


Feels Like: 37 °F
Forecast: 60 / 37 °F
Wind: 3 mph from Northwest

Location: Gainesville Regional Airport

Current Time: Jan 16, 2019 at 9:21:05 am

Latest Report: Jan 16, 2019 at 7:53 am


Visibility: 8 mi

Pressure: 30.31 "Hg

Humidity: 89%

Dew Point: 36 °F

Location of GainesvilleLocation

Past Weather in Gainesville — Graph

°F

Gainesville Temperature Yesterday

Maximum temperature yesterday: 54 °F (at 2:53 pm)
Minimum temperature yesterday: 39 °F (at 8:53 pm)
Average temperature yesterday: 48 °F

High & Low Weather Summary for the Past Weeks

 TemperatureHumidityPressure
High81 °F (Jan 1, 1:53 pm)100% (Jan 1, 8:07 am)30.32 "Hg (Jan 1, 8:07 am)
Low33 °F (Jan 11, 12:53 am)31% (Jan 9, 4:53 pm)29.85 "Hg (Jan 4, 1:53 pm)
Average58 °F78%30.16 "Hg
* Reported Jan 1 8:07 am — Jan 16 7:53 am, Gainesville. Weather by CustomWeather, © 2019

Note: Actual official high and low records may vary slightly from our data, if they occured in-between our weather recording intervals... More about our weather records

Advertising

Gainesville Weather History for the Previous 24 Hours

Scroll right to see more
 ConditionsComfort  
Time TempWeatherWind HumidityBarometerVisibility
7:53 am
Wed, Jan 16
39 °FSunny.3 mph89%30.31 "Hg8 mi
6:53 am39 °FClear.No wind86%30.29 "Hg10 mi
5:53 am39 °FClear.5 mph89%30.28 "Hg10 mi
4:53 am38 °FClear.3 mph93%30.27 "Hg9 mi
3:53 am39 °FClear.5 mph89%30.27 "Hg10 mi
2:53 am39 °FClear.5 mph89%30.27 "Hg10 mi
1:53 am39 °FClear.3 mph93%30.26 "Hg10 mi
12:53 am40 °FClear.5 mph89%30.27 "Hg10 mi
11:53 pm
Tue, Jan 15
41 °FClear.8 mph86%30.29 "Hg10 mi
10:53 pm40 °FClear.6 mph93%30.30 "Hg10 mi
9:53 pm39 °FClear.No wind86%30.29 "Hg10 mi
8:53 pm39 °FClear.No wind93%30.28 "Hg10 mi
7:53 pm43 °FClear.No wind86%30.25 "Hg10 mi
6:53 pm42 °FClear.No wind85%30.26 "Hg10 mi
5:53 pm50 °FPassing clouds.No wind63%30.24 "Hg10 mi
4:53 pm53 °FPartly sunny.7 mph56%30.24 "Hg10 mi
3:53 pm53 °FScattered clouds.7 mph56%30.23 "Hg10 mi
2:53 pm54 °FOvercast.8 mph57%30.23 "Hg10 mi
2:34 pm53 °FOvercast.9 mph59%30.23 "Hg10 mi
1:53 pm53 °FOvercast.7 mph59%30.24 "Hg10 mi
12:53 pm51 °FOvercast.5 mph63%30.26 "Hg10 mi
11:53 am52 °FOvercast.8 mph61%30.29 "Hg10 mi
10:53 am52 °FOvercast.9 mph64%30.29 "Hg10 mi
10:35 am50 °FMore clouds than sun.7 mph68%30.29 "Hg10 mi
9:53 am50 °FOvercast.8 mph71%30.29 "Hg10 mi
9:01 am49 °FOvercast.6 mph74%30.27 "Hg10 mi
Weather by CustomWeather, © 2019

See weather overview